,,,PA_Meas_PMT16A,,PR_Meas_QMR101_102,,RH_Meas_QMH101,,SR_Meas_QMS101,,TA_Meas_QMH101,,GenWind,,GenWind,
date,time,status,PA,status,PR,status,RH,status,SR,status,TA,status,DirAvg,status,SpdAvg,
2008-12-02, 00:00:05,VALID,1004.06,VALID,0,VALID,88.8993,VALID,0,VALID,25.5142,VALID,354,VALID,0.478906,
2008-12-02, 00:01:05,VALID,1004.04,VALID,0,VALID,88.6171,VALID,0,VALID,25.5746,VALID,354,VALID,0.00195313,
2008-12-02, 00:02:05,VALID,1004.05,VALID,0,VALID,88.4721,VALID,0,VALID,25.5941,VALID,3,VALID,0.865625,
2008-12-02, 00:03:05,VALID,1004.02,VALID,0,VALID,88.0831,VALID,0,VALID,25.6915,VALID,353,VALID,0.865234,
2008-12-02, 00:04:05,VALID,1004.05,VALID,0,VALID,87.7855,VALID,0,VALID,25.748,VALID,13,VALID,0.357812,
2008-12-02, 00:05:05,VALID,1004.02,VALID,0,VALID,87.4956,VALID,0,VALID,25.748,VALID,13,VALID,0.0394531,
2008-12-02, 00:06:05,VALID,1004,VALID,0,VALID,87.5414,VALID,0,VALID,25.7499,VALID,12,VALID,0.239453,
2008-12-02, 00:07:05,VALID,1003.99,VALID,0,VALID,87.5872,VALID,0,VALID,25.7499,VALID,12,VALID,0.220703,
2008-12-02, 00:08:05,VALID,1004,VALID,0,VALID,87.6177,VALID,0,VALID,25.6915,VALID,12,VALID,0.102734,
2008-12-02, 00:09:05,VALID,1003.97,VALID,0,VALID,87.7016,VALID,0,VALID,25.6311,VALID,12,VALID,0.272656,
2008-12-02, 00:10:05,VALID,1003.98,VALID,0,VALID,87.961,VALID,0,VALID,25.5902,VALID,2,VALID,0.665625,
2008-12-02, 00:11:05,VALID,1003.91,VALID,0,VALID,88.1822,VALID,0,VALID,25.6116,VALID,12,VALID,0.731641,
2008-12-02, 00:12:05,VALID,1003.91,VALID,0,VALID,88.0373,VALID,0.100563,VALID,25.6311,VALID,6,VALID,0.127734,
2008-12-02, 00:13:05,VALID,1003.87,VALID,0,VALID,88.0678,VALID,0,VALID,25.6311,VALID,6,VALID,0,
2008-12-02, 00:14:05,VALID,1003.88,VALID,0,VALID,88.167,VALID,0.100563,VALID,25.5707,VALID,24,VALID,0.251563,
2008-12-02, 00:15:05,VALID,1003.86,VALID,0,VALID,88.1899,VALID,0,VALID,25.5921,VALID,4,VALID,0.223438,
2008-12-02, 00:16:05,VALID,1003.88,VALID,0,VALID,88.2433,VALID,0,VALID,25.5727,VALID,4,VALID,0.346875,
2008-12-02, 00:17:05,VALID,1003.84,VALID,0,VALID,88.3195,VALID,0,VALID,25.5921,VALID,15,VALID,0.283984,
2008-12-02, 00:18:05,VALID,1003.81,VALID,0,VALID,88.1899,VALID,0.100563,VALID,25.5921,VALID,34,VALID,0.319531,
2008-12-02, 00:19:05,VALID,1003.85,VALID,0,VALID,88.3272,VALID,0,VALID,25.5513,VALID,38,VALID,0.624609,
2008-12-02, 00:20:05,VALID,1003.85,VALID,0,VALID,88.5713,VALID,0.100563,VALID,25.6681,VALID,53,VALID,1.06406,
2008-12-02, 00:21:05,VALID,1003.84,VALID,0,VALID,88.0144,VALID,0.100563,VALID,25.748,VALID,35,VALID,0.318359,
2008-12-02, 00:22:05,VALID,1003.83,VALID,0,VALID,88.0525,VALID,0,VALID,25.748,VALID,100,VALID,0.890625,
2008-12-02, 00:23:05,VALID,1003.79,VALID,0,VALID,87.961,VALID,0,VALID,25.7869,VALID,66,VALID,0.617969,
2008-12-02, 00:24:05,VALID,1003.81,VALID,0,VALID,87.9228,VALID,0,VALID,25.8044,VALID,78,VALID,0.940625,
2008-12-02, 00:25:05,VALID,1003.8,VALID,0,VALID,87.7169,VALID,0,VALID,25.8668,VALID,18,VALID,0.704297,
2008-12-02, 00:26:05,VALID,1003.79,VALID,0,VALID,87.4651,VALID,0,VALID,25.9252,VALID,70,VALID,1.01875,
2008-12-02, 00:27:05,VALID,1003.76,VALID,0,VALID,87.2439,VALID,0,VALID,25.9642,VALID,92,VALID,0.696484,
2008-12-02, 00:28:05,VALID,1003.79,VALID,0,VALID,87.1828,VALID,0,VALID,25.9836,VALID,90,VALID,0.601172,
2008-12-02, 00:29:05,VALID,1003.8,VALID,0,VALID,87.0455,VALID,0,VALID,25.9622,VALID,98,VALID,0.253906,
2008-12-02, 00:30:05,VALID,1003.76,VALID,0,VALID,87.0455,VALID,0,VALID,25.9836,VALID,63,VALID,1.02031,
2008-12-02, 00:31:05,VALID,1003.78,VALID,0,VALID,87.0989,VALID,0,VALID,25.9622,VALID,81,VALID,0.326562,
2008-12-02, 00:32:05,VALID,1003.8,VALID,0,VALID,87.1142,VALID,0,VALID,25.9622,VALID,83,VALID,0.270703,
2008-12-02, 00:33:05,VALID,1003.77,VALID,0,VALID,87.1142,VALID,0,VALID,25.9622,VALID,83,VALID,0.355859,
2008-12-02, 00:34:05,VALID,1003.79,VALID,0,VALID,87.0989,VALID,0,VALID,25.9836,VALID,84,VALID,0.303125,
2008-12-02, 00:35:05,VALID,1003.77,VALID,0,VALID,87.1142,VALID,0,VALID,25.9836,VALID,52,VALID,0.247656,
2008-12-02, 00:36:05,VALID,1003.76,VALID,0,VALID,87.1142,VALID,0,VALID,25.9817,VALID,99,VALID,0.803516,
2008-12-02, 00:37:05,VALID,1003.73,VALID,0,VALID,86.9311,VALID,0,VALID,26.0226,VALID,88,VALID,0.409375,
2008-12-02, 00:38:05,VALID,1003.72,VALID,0,VALID,86.8319,VALID,0,VALID,26.0421,VALID,123,VALID,0.521875,
2008-12-02, 00:39:05,VALID,1003.71,VALID,0,VALID,86.7175,VALID,0,VALID,26.081,VALID,124,VALID,0.0582031,
2008-12-02, 00:40:05,VALID,1003.73,VALID,0,VALID,86.7022,VALID,0,VALID,26.0401,VALID,124,VALID,0,
2008-12-02, 00:41:05,VALID,1003.74,VALID,0,VALID,86.7022,VALID,0,VALID,26.0421,VALID,124,VALID,0.171875,
2008-12-02, 00:42:05,VALID,1003.75,VALID,0,VALID,86.954,VALID,0,VALID,26.0206,VALID,127,VALID,0.208203,
2008-12-02, 00:43:05,VALID,1003.74,VALID,0,VALID,87.0455,VALID,0,VALID,26.12,VALID,42,VALID,0.672266,
2008-12-02, 00:44:05,VALID,1003.73,VALID,0,VALID,86.687,VALID,0,VALID,26.159,VALID,29,VALID,0.139844,
2008-12-02, 00:45:05,VALID,1003.76,VALID,0,VALID,86.6259,VALID,0,VALID,26.0985,VALID,87,VALID,0.471484,
2008-12-02, 00:46:05,VALID,1003.77,VALID,0,VALID,86.6565,VALID,0,VALID,26.0985,VALID,87,VALID,0.304688,
2008-12-02, 00:47:05,VALID,1003.75,VALID,0,VALID,86.8243,VALID,0,VALID,26.0596,VALID,87,VALID,0.359766,
2008-12-02, 00:48:05,VALID,1003.74,VALID,0,VALID,86.9387,VALID,0,VALID,26.0401,VALID,87,VALID,0.252344,
2008-12-02, 00:49:05,VALID,1003.74,VALID,0,VALID,87.0074,VALID,0,VALID,26.0616,VALID,87,VALID,0,
2008-12-02, 00:50:05,VALID,1003.74,VALID,0,VALID,87.0684,VALID,0,VALID,25.9622,VALID,87,VALID,0.255469,
2008-12-02, 00:51:05,VALID,1003.76,VALID,0,VALID,87.221,VALID,0,VALID,25.9057,VALID,87,VALID,0.297656,
2008-12-02, 00:52:05,VALID,1003.75,VALID,0,VALID,87.6024,VALID,0,VALID,25.7889,VALID,87,VALID,0,
2008-12-02, 00:53:05,VALID,1003.72,VALID,0,VALID,88.1288,VALID,0,VALID,25.748,VALID,87,VALID,0.321875,
2008-12-02, 00:54:05,VALID,1003.74,VALID,0,VALID,88.1059,VALID,0,VALID,25.709,VALID,87,VALID,0.113672,
2008-12-02, 00:55:05,VALID,1003.74,VALID,0,VALID,88.228,VALID,0,VALID,25.6506,VALID,87,VALID,0.0472656,
2008-12-02, 00:56:05,VALID,1003.74,VALID,0,VALID,88.4111,VALID,0,VALID,25.6116,VALID,87,VALID,0,
2008-12-02, 00:57:05,VALID,1003.77,VALID,0,VALID,88.5942,VALID,0,VALID,25.5532,VALID,87,VALID,0,
2008-12-02, 00:58:05,VALID,1003.79,VALID,0,VALID,88.8841,VALID,0,VALID,25.5162,VALID,87,VALID,0,
2008-12-02, 00:59:05,VALID,1003.85,VALID,0,VALID,89.174,VALID,0,VALID,25.4772,VALID,93,VALID,0.114063,
2008-12-02, 01:00:05,VALID,1003.87,VALID,0,VALID,89.5402,VALID,0,VALID,25.4169,VALID,93,VALID,0,
2008-12-02, 01:01:05,VALID,1003.9,VALID,0,VALID,89.647,VALID,0,VALID,25.4383,VALID,93,VALID,0.0886719,
2008-12-02, 01:02:05,VALID,1003.94,VALID,0,VALID,89.8224,VALID,0,VALID,25.3993,VALID,92,VALID,0.0257812,
2008-12-02, 01:03:05,VALID,1003.98,VALID,0,VALID,90.036,VALID,0,VALID,25.3604,VALID,91,VALID,0.301953,
2008-12-02, 01:04:05,VALID,1004.03,VALID,0,VALID,90.2725,VALID,0,VALID,25.3195,VALID,353,VALID,0.000390625,
2008-12-02, 01:05:05,VALID,1004.07,VALID,0,VALID,90.4556,VALID,0,VALID,25.3584,VALID,316,VALID,0.253906,
2008-12-02, 01:06:05,VALID,1004.17,VALID,0,VALID,90.5853,VALID,0,VALID,25.3584,VALID,316,VALID,0.0878906,
2008-12-02, 01:07:05,VALID,1004.22,VALID,0,VALID,90.8447,VALID,0,VALID,25.3779,VALID,307,VALID,0.709375,
2008-12-02, 01:08:05,VALID,1004.32,VALID,0,VALID,90.7455,VALID,0,VALID,25.4383,VALID,284,VALID,1.18086,
2008-12-02, 01:09:05,VALID,1004.35,VALID,0,VALID,90.1352,VALID,0,VALID,25.4577,VALID,312,VALID,2.13594,
2008-12-02, 01:10:05,VALID,1004.3,VALID,0,VALID,89.5707,VALID,0,VALID,25.4383,VALID,350,VALID,1.98594,
2008-12-02, 01:11:05,VALID,1004.3,VALID,0,VALID,89.5097,VALID,0,VALID,25.3584,VALID,296,VALID,1.63008,
2008-12-02, 01:12:05,VALID,1004.13,VALID,0,VALID,89.4868,VALID,0,VALID,25.3019,VALID,321,VALID,2.52852,
2008-12-02, 01:13:05,VALID,1004.19,VALID,0,VALID,89.8911,VALID,0,VALID,25.224,VALID,322,VALID,2.89609,
2008-12-02, 01:14:05,VALID,1004.34,VALID,0,VALID,89.9826,VALID,0,VALID,25.1248,VALID,277,VALID,1.57695,
2008-12-02, 01:15:05,VALID,1004.27,VALID,0,VALID,90.0055,VALID,0,VALID,25.0469,VALID,299,VALID,1.27617,
2008-12-02, 01:16:05,VALID,1004.26,VALID,0,VALID,89.914,VALID,0,VALID,25.0274,VALID,298,VALID,4.84336,
2008-12-02, 01:17:05,VALID,1004.27,VALID,0,VALID,90.3183,VALID,0,VALID,25.0098,VALID,296,VALID,2.70664,
2008-12-02, 01:18:05,VALID,1004.39,VALID,0,VALID,90.6845,VALID,0,VALID,24.969,VALID,217,VALID,1.1125,
2008-12-02, 01:19:05,VALID,1004.33,VALID,0,VALID,90.6082,VALID,0,VALID,24.9495,VALID,260,VALID,1.2625,
2008-12-02, 01:20:05,VALID,1004.39,VALID,0,VALID,90.0666,VALID,0,VALID,24.8716,VALID,183,VALID,3.1043,
2008-12-02, 01:21:05,VALID,1004.38,VALID,0,VALID,90.4327,VALID,0,VALID,24.7353,VALID,217,VALID,2.23828,
2008-12-02, 01:22:05,VALID,1004.4,VALID,0,VALID,90.9973,VALID,0,VALID,24.6574,VALID,227,VALID,1.60312,
2008-12-02, 01:23:05,VALID,1004.5,VALID,0,VALID,91.5389,VALID,0,VALID,24.562,VALID,76,VALID,0.904297,
2008-12-02, 01:24:05,VALID,1004.44,VALID,0.5,VALID,92.0119,VALID,0,VALID,24.4822,VALID,169,VALID,1.05195,
2008-12-02, 01:25:05,VALID,1004.51,VALID,1,VALID,92.3857,VALID,0,VALID,24.3654,VALID,301,VALID,0.898047,
2008-12-02, 01:26:05,VALID,1004.38,VALID,0.5,VALID,92.8969,VALID,0,VALID,24.2875,VALID,162,VALID,2.14336,
2008-12-02, 01:27:05,VALID,1004.48,VALID,0,VALID,93.3928,VALID,0,VALID,24.2681,VALID,217,VALID,1.28047,
2008-12-02, 01:28:05,VALID,1004.45,VALID,0.5,VALID,93.7589,VALID,0.100563,VALID,24.2486,VALID,220,VALID,2.48281,
2008-12-02, 01:29:05,VALID,1004.44,VALID,0.5,VALID,93.8657,VALID,0,VALID,24.231,VALID,210,VALID,2.58867,
2008-12-02, 01:30:05,VALID,1004.45,VALID,0,VALID,93.6903,VALID,0,VALID,24.1531,VALID,216,VALID,2.33906,
2008-12-02, 01:31:05,VALID,1004.39,VALID,0.5,VALID,93.8963,VALID,0,VALID,24.0752,VALID,214,VALID,2.58633,
2008-12-02, 01:32:05,VALID,1004.37,VALID,0.5,VALID,94.1099,VALID,0,VALID,24.0752,VALID,222,VALID,2.47344,
2008-12-02, 01:33:05,VALID,1004.35,VALID,1,VALID,94.2014,VALID,0,VALID,23.9955,VALID,200,VALID,2.93281,
2008-12-02, 01:34:05,VALID,1004.36,VALID,1.5,VALID,94.3006,VALID,0,VALID,23.9761,VALID,173,VALID,2.22539,
2008-12-02, 01:35:05,VALID,1004.26,VALID,1.5,VALID,94.3387,VALID,0,VALID,23.9177,VALID,193,VALID,2.59531,
2008-12-02, 01:36:05,VALID,1004.3,VALID,1,VALID,94.4684,VALID,0,VALID,23.9,VALID,224,VALID,2.41602,
2008-12-02, 01:37:05,VALID,1004.34,VALID,0.5,VALID,94.5905,VALID,0,VALID,23.8398,VALID,192,VALID,1.45586,
2008-12-02, 01:38:05,VALID,1004.32,VALID,0.5,VALID,94.7278,VALID,0,VALID,23.8593,VALID,189,VALID,2.11016,
2008-12-02, 01:39:05,VALID,1004.3,VALID,0.5,VALID,94.8346,VALID,0,VALID,23.8398,VALID,184,VALID,2.52383,
2008-12-02, 01:40:05,VALID,1004.31,VALID,0,VALID,94.9643,VALID,0,VALID,23.838,VALID,234,VALID,0.890625,
2008-12-02, 01:41:05,VALID,1004.28,VALID,0.5,VALID,95.094,VALID,0,VALID,23.8787,VALID,300,VALID,0.635547,
2008-12-02, 01:42:05,VALID,1004.3,VALID,1,VALID,95.1093,VALID,0,VALID,23.8982,VALID,272,VALID,1.00078,
2008-12-02, 01:43:05,VALID,1004.31,VALID,0.5,VALID,95.1398,VALID,0,VALID,23.9177,VALID,311,VALID,0.751172,
2008-12-02, 01:44:05,VALID,1004.25,VALID,0.5,VALID,95.2084,VALID,0,VALID,23.9389,VALID,325,VALID,1.27148,
2008-12-02, 01:45:05,VALID,1004.26,VALID,0,VALID,95.2084,VALID,0,VALID,23.8964,VALID,93,VALID,1.02344,
2008-12-02, 01:46:05,VALID,1004.25,VALID,0.5,VALID,95.1779,VALID,0,VALID,23.9389,VALID,209,VALID,2.56875,
2008-12-02, 01:47:05,VALID,1004.31,VALID,0,VALID,95.1093,VALID,0,VALID,23.8805,VALID,243,VALID,1.53437,
2008-12-02, 01:48:05,VALID,1004.31,VALID,0,VALID,95.033,VALID,0,VALID,23.7814,VALID,214,VALID,1.56523,
2008-12-02, 01:49:05,VALID,1004.31,VALID,0,VALID,95.0406,VALID,0,VALID,23.723,VALID,168,VALID,1.10078,
2008-12-02, 01:50:05,VALID,1004.27,VALID,0,VALID,95.2084,VALID,0,VALID,23.7035,VALID,250,VALID,2.43945,
2008-12-02, 01:51:05,VALID,1004.3,VALID,0.5,VALID,95.3305,VALID,0,VALID,23.7425,VALID,322,VALID,0.623047,
2008-12-02, 01:52:04,VALID,1004.31,VALID,0,VALID,95.3686,VALID,0,VALID,23.7619,VALID,330,VALID,1.42188,
2008-12-02, 01:53:04,VALID,1004.27,VALID,0,VALID,95.3763,VALID,0,VALID,23.7814,VALID,74,VALID,1.10703,
2008-12-02, 01:54:04,VALID,1004.08,VALID,0,VALID,95.2771,VALID,0,VALID,23.7212,VALID,201,VALID,3.46133,
2008-12-02, 01:55:04,VALID,1004.23,VALID,0,VALID,95.361,VALID,0,VALID,23.7425,VALID,18,VALID,1.63047,
2008-12-02, 01:56:04,VALID,1004.26,VALID,0,VALID,95.4602,VALID,0,VALID,23.7814,VALID,195,VALID,1.33086,
2008-12-02, 01:57:04,VALID,1004.21,VALID,0.5,VALID,95.4678,VALID,0,VALID,23.8203,VALID,325,VALID,1.99063,
2008-12-02, 01:58:04,VALID,1004.25,VALID,0,VALID,95.3381,VALID,0,VALID,23.7619,VALID,261,VALID,1.21328,
2008-12-02, 01:59:04,VALID,1004.26,VALID,0,VALID,95.1016,VALID,0,VALID,23.6062,VALID,218,VALID,2.90195,
2008-12-02, 02:00:04,VALID,1004.3,VALID,0.5,VALID,95.1321,VALID,0,VALID,23.5496,VALID,235,VALID,1.91367,
2008-12-02, 02:01:04,VALID,1004.26,VALID,0,VALID,95.1474,VALID,0,VALID,23.47,VALID,277,VALID,1.88164,
2008-12-02, 02:02:04,VALID,1004.32,VALID,0.5,VALID,95.2542,VALID,0,VALID,23.4311,VALID,314,VALID,1.58281,
2008-12-02, 02:03:04,VALID,1004.23,VALID,0,VALID,95.3457,VALID,0,VALID,23.4311,VALID,272,VALID,2.11602,
2008-12-02, 02:04:04,VALID,1004.27,VALID,0.5,VALID,95.4297,VALID,0,VALID,23.4718,VALID,186,VALID,0.876953,
2008-12-02, 02:05:04,VALID,1004.28,VALID,0.5,VALID,95.4831,VALID,0,VALID,23.47,VALID,215,VALID,1.52852,
2008-12-02, 02:06:04,VALID,1004.26,VALID,0.5,VALID,95.4449,VALID,0,VALID,23.47,VALID,209,VALID,2.50508,
2008-12-02, 02:07:04,VALID,1004.23,VALID,0.5,VALID,95.4678,VALID,0,VALID,23.4505,VALID,34,VALID,1.15859,
2008-12-02, 02:08:04,VALID,1004.21,VALID,0.5,VALID,95.4373,VALID,0,VALID,23.4523,VALID,195,VALID,1.44961,
2008-12-02, 02:09:04,VALID,1004.19,VALID,0.5,VALID,95.4526,VALID,0,VALID,23.4116,VALID,174,VALID,1.00977,
2008-12-02, 02:10:04,VALID,1004.12,VALID,0,VALID,95.4754,VALID,0,VALID,23.3921,VALID,208,VALID,3.38906,
2008-12-02, 02:11:04,VALID,1004.22,VALID,0.5,VALID,95.3763,VALID,0,VALID,23.3337,VALID,266,VALID,2.32539,
2008-12-02, 02:12:04,VALID,1004.1,VALID,0.5,VALID,95.3763,VALID,0,VALID,23.2754,VALID,153,VALID,2.02539,
2008-12-02, 02:13:04,VALID,1004.06,VALID,0.5,VALID,95.361,VALID,0,VALID,23.217,VALID,158,VALID,1.53008,
2008-12-02, 02:14:04,VALID,1004.1,VALID,0,VALID,95.3915,VALID,0,VALID,23.178,VALID,200,VALID,3.17969,
2008-12-02, 02:15:04,VALID,1004.07,VALID,0.5,VALID,95.4526,VALID,0,VALID,23.1586,VALID,322,VALID,1.09727,
2008-12-02, 02:16:04,VALID,1004.06,VALID,0,VALID,95.5136,VALID,0,VALID,23.1586,VALID,167,VALID,0.937891,
2008-12-02, 02:17:04,VALID,1003.99,VALID,0.5,VALID,95.5212,VALID,0,VALID,23.1586,VALID,157,VALID,1.34219,
2008-12-02, 02:18:04,VALID,1004.02,VALID,0,VALID,95.5365,VALID,0,VALID,23.1374,VALID,274,VALID,0.757422,
2008-12-02, 02:19:04,VALID,1003.95,VALID,0.5,VALID,95.5517,VALID,0.100563,VALID,23.1586,VALID,221,VALID,0.556641,
2008-12-02, 02:20:04,VALID,1003.96,VALID,0,VALID,95.5746,VALID,0,VALID,23.1957,VALID,183,VALID,1.60664,
2008-12-02, 02:21:04,VALID,1003.97,VALID,0,VALID,95.5822,VALID,0.100563,VALID,23.2152,VALID,114,VALID,0.466797,
2008-12-02, 02:22:04,VALID,1003.94,VALID,0.5,VALID,95.5899,VALID,0,VALID,23.2347,VALID,156,VALID,0.633594,
2008-12-02, 02:23:04,VALID,1003.95,VALID,0,VALID,95.6051,VALID,0,VALID,23.2736,VALID,221,VALID,0.602344,
2008-12-02, 02:24:04,VALID,1003.93,VALID,0,VALID,95.6204,VALID,0.100563,VALID,23.2948,VALID,236,VALID,1.32227,
2008-12-02, 02:25:04,VALID,1003.91,VALID,0,VALID,95.5975,VALID,0,VALID,23.1975,VALID,275,VALID,1.14453,
2008-12-02, 02:26:04,VALID,1003.92,VALID,0.5,VALID,95.5594,VALID,0,VALID,23.1179,VALID,227,VALID,2.06133,
2008-12-02, 02:27:04,VALID,1003.9,VALID,0,VALID,95.5365,VALID,0,VALID,23.1391,VALID,356,VALID,0.498828,
2008-12-02, 02:28:04,VALID,1003.86,VALID,0.5,VALID,95.567,VALID,0.100563,VALID,23.178,VALID,224,VALID,1.10273,
2008-12-02, 02:29:04,VALID,1003.91,VALID,0,VALID,95.5822,VALID,0,VALID,23.178,VALID,213,VALID,1.86563,
2008-12-02, 02:30:04,VALID,1003.85,VALID,0.5,VALID,95.6128,VALID,0,VALID,23.178,VALID,356,VALID,0.968359,
2008-12-02, 02:31:04,VALID,1003.85,VALID,0,VALID,95.6204,VALID,0,VALID,23.217,VALID,200,VALID,1.52734,
2008-12-02, 02:32:04,VALID,1003.82,VALID,0.5,VALID,95.6509,VALID,0,VALID,23.217,VALID,230,VALID,1.81836,
2008-12-02, 02:33:04,VALID,1003.81,VALID,0,VALID,95.6204,VALID,0,VALID,23.217,VALID,219,VALID,1.95664,
2008-12-02, 02:34:04,VALID,1003.84,VALID,0,VALID,95.6585,VALID,0,VALID,23.217,VALID,242,VALID,1.37109,
2008-12-02, 02:35:04,VALID,1003.84,VALID,0,VALID,95.6356,VALID,0,VALID,23.178,VALID,259,VALID,1.09648,
2008-12-02, 02:36:04,VALID,1003.82,VALID,0.5,VALID,95.628,VALID,0,VALID,23.1391,VALID,186,VALID,0.884375,
2008-12-02, 02:37:04,VALID,1003.81,VALID,0,VALID,95.6433,VALID,0,VALID,23.1391,VALID,229,VALID,0.416016,
2008-12-02, 02:38:04,VALID,1003.84,VALID,0,VALID,95.6433,VALID,0,VALID,23.1391,VALID,206,VALID,1.10117,
2008-12-02, 02:39:04,VALID,1003.85,VALID,0.5,VALID,95.6585,VALID,0,VALID,23.1586,VALID,274,VALID,0.692578,
2008-12-02, 02:40:04,VALID,1003.87,VALID,0,VALID,95.6738,VALID,0,VALID,23.217,VALID,218,VALID,1.20313,
2008-12-02, 02:41:04,VALID,1003.81,VALID,0.5,VALID,95.689,VALID,0,VALID,23.2541,VALID,260,VALID,0.796484,
2008-12-02, 02:42:04,VALID,1003.8,VALID,0,VALID,95.689,VALID,0,VALID,23.2754,VALID,282,VALID,0.871094,
2008-12-02, 02:43:04,VALID,1003.76,VALID,0,VALID,95.7043,VALID,0,VALID,23.217,VALID,270,VALID,1.16836,
2008-12-02, 02:44:04,VALID,1003.74,VALID,0.5,VALID,95.7043,VALID,0,VALID,23.1975,VALID,210,VALID,0.371484,
2008-12-02, 02:45:04,VALID,1003.73,VALID,0,VALID,95.6814,VALID,0,VALID,23.1975,VALID,166,VALID,0.99375,
2008-12-02, 02:46:04,VALID,1003.69,VALID,0,VALID,95.689,VALID,0,VALID,23.2152,VALID,49,VALID,0.872656,
2008-12-02, 02:47:04,VALID,1003.62,VALID,0,VALID,95.7043,VALID,0,VALID,23.178,VALID,224,VALID,1.82773,
2008-12-02, 02:48:04,VALID,1003.63,VALID,0.5,VALID,95.6967,VALID,0,VALID,23.1586,VALID,261,VALID,0.455469,
2008-12-02, 02:49:04,VALID,1003.58,VALID,0,VALID,95.6814,VALID,0,VALID,23.1197,VALID,269,VALID,0.855078,
2008-12-02, 02:50:04,VALID,1003.55,VALID,0,VALID,95.6738,VALID,0.100563,VALID,23.1002,VALID,276,VALID,0.981641,
2008-12-02, 02:51:04,VALID,1003.54,VALID,0.5,VALID,95.7043,VALID,0,VALID,23.0807,VALID,110,VALID,0.562891,
2008-12-02, 02:52:04,VALID,1003.4,VALID,0,VALID,95.6967,VALID,0.100563,VALID,23.1002,VALID,193,VALID,2.61094,
2008-12-02, 02:53:04,VALID,1003.45,VALID,0,VALID,95.7043,VALID,0,VALID,23.0613,VALID,184,VALID,0.695703,
2008-12-02, 02:54:04,VALID,1003.38,VALID,0.5,VALID,95.7043,VALID,0.100563,VALID,23.0401,VALID,161,VALID,0.711719,
2008-12-02, 02:55:04,VALID,1003.35,VALID,0,VALID,95.6814,VALID,0,VALID,23.0807,VALID,223,VALID,1.39063,
2008-12-02, 02:56:04,VALID,1003.32,VALID,0,VALID,95.7119,VALID,0.100563,VALID,23.1197,VALID,166,VALID,0.797266,
2008-12-02, 02:57:04,VALID,1003.28,VALID,0.5,VALID,95.7272,VALID,0,VALID,23.0984,VALID,155,VALID,1.23242,
2008-12-02, 02:58:04,VALID,1003.24,VALID,0,VALID,95.7501,VALID,0.100563,VALID,23.0984,VALID,257,VALID,0.719922,
2008-12-02, 02:59:04,VALID,1003.27,VALID,0.5,VALID,95.7348,VALID,0,VALID,23.1197,VALID,186,VALID,0.71875,
2008-12-02, 03:00:04,VALID,1003.23,VALID,0,VALID,95.7501,VALID,0,VALID,23.079,VALID,174,VALID,0.698828,
2008-12-02, 03:01:04,VALID,1003.21,VALID,0,VALID,95.7348,VALID,0.100563,VALID,23.1002,VALID,338,VALID,0.765234,
2008-12-02, 03:02:04,VALID,1003.29,VALID,0.5,VALID,95.7424,VALID,0.100563,VALID,23.0595,VALID,229,VALID,0.726953,
2008-12-02, 03:03:04,VALID,1003.26,VALID,0,VALID,95.7424,VALID,0.100563,VALID,23.0595,VALID,216,VALID,2.34219,
2008-12-02, 03:04:04,VALID,1003.28,VALID,0,VALID,95.7272,VALID,0,VALID,23.0401,VALID,106,VALID,0.630469,
2008-12-02, 03:05:04,VALID,1003.29,VALID,0.5,VALID,95.7577,VALID,0.100563,VALID,23.0401,VALID,339,VALID,0.686719,
2008-12-02, 03:06:04,VALID,1003.29,VALID,0,VALID,95.7348,VALID,0.100563,VALID,23.0401,VALID,324,VALID,0.575391,
2008-12-02, 03:07:04,VALID,1003.28,VALID,0,VALID,95.7577,VALID,0.100563,VALID,23.0401,VALID,221,VALID,0.959375,
2008-12-02, 03:08:04,VALID,1003.27,VALID,0.5,VALID,95.7577,VALID,0.100563,VALID,23.0401,VALID,167,VALID,0.667188,
2008-12-02, 03:09:04,VALID,1003.24,VALID,0,VALID,95.7806,VALID,0.100563,VALID,23.0401,VALID,275,VALID,0.519141,
2008-12-02, 03:10:04,VALID,1003.21,VALID,0,VALID,95.773,VALID,0.100563,VALID,23.0206,VALID,328,VALID,0.526172,
2008-12-02, 03:11:04,VALID,1003.17,VALID,0.5,VALID,95.7577,VALID,0.100563,VALID,23.0012,VALID,267,VALID,0.573047,
2008-12-02, 03:12:04,VALID,1003.13,VALID,0,VALID,95.7806,VALID,0.100563,VALID,23.0012,VALID,85,VALID,0.167187,
2008-12-02, 03:13:04,VALID,1003.07,VALID,0,VALID,95.7882,VALID,0,VALID,23.0012,VALID,159,VALID,1.14961,
2008-12-02, 03:14:04,VALID,1003.04,VALID,0.5,VALID,95.773,VALID,0.100563,VALID,23.0206,VALID,200,VALID,0.698828,
2008-12-02, 03:15:04,VALID,1003.03,VALID,0,VALID,95.7806,VALID,0.100563,VALID,23.0206,VALID,250,VALID,1.63555,
2008-12-02, 03:16:04,VALID,1003.04,VALID,0,VALID,95.8035,VALID,0,VALID,23.0012,VALID,287,VALID,0.715234,
2008-12-02, 03:17:04,VALID,1003.01,VALID,0,VALID,95.7653,VALID,0.100563,VALID,23.0224,VALID,282,VALID,0.664453,
2008-12-02, 03:18:04,VALID,1003.04,VALID,0,VALID,95.7882,VALID,0.100563,VALID,23.0012,VALID,266,VALID,1.39883,
2008-12-02, 03:19:04,VALID,1003.02,VALID,0.5,VALID,95.773,VALID,0,VALID,22.9817,VALID,172,VALID,0.721094,
2008-12-02, 03:20:04,VALID,1003.04,VALID,0,VALID,95.7882,VALID,0.100563,VALID,22.9622,VALID,48,VALID,0.205469,
2008-12-02, 03:21:04,VALID,1003.03,VALID,0,VALID,95.7959,VALID,0.100563,VALID,22.9445,VALID,84,VALID,0.600781,
2008-12-02, 03:22:04,VALID,1003.03,VALID,0,VALID,95.7959,VALID,0.100563,VALID,22.9039,VALID,212,VALID,0.448438,
2008-12-02, 03:23:04,VALID,1003.04,VALID,0,VALID,95.7959,VALID,0.100563,VALID,22.8455,VALID,80,VALID,0.512891,
2008-12-02, 03:24:04,VALID,1003.02,VALID,0,VALID,95.7882,VALID,0.100563,VALID,22.8455,VALID,262,VALID,0.432813,
2008-12-02, 03:25:04,VALID,1003,VALID,0,VALID,95.7806,VALID,0,VALID,22.8295,VALID,218,VALID,0.423438,
2008-12-02, 03:26:04,VALID,1003.01,VALID,0,VALID,95.7653,VALID,0,VALID,22.8295,VALID,242,VALID,0.573047,
2008-12-02, 03:27:04,VALID,1002.98,VALID,0,VALID,95.7806,VALID,0,VALID,22.8489,VALID,255,VALID,0.323047,
2008-12-02, 03:28:04,VALID,1002.99,VALID,0,VALID,95.8035,VALID,0,VALID,22.8684,VALID,285,VALID,0.257422,
2008-12-02, 03:29:04,VALID,1002.98,VALID,0,VALID,95.8035,VALID,0,VALID,22.8861,VALID,311,VALID,0.813281,
2008-12-02, 03:30:04,VALID,1002.95,VALID,0,VALID,95.8187,VALID,0,VALID,22.8861,VALID,293,VALID,0.583594,
2008-12-02, 03:31:04,VALID,1002.96,VALID,0,VALID,95.8264,VALID,0,VALID,22.9268,VALID,318,VALID,0.0617188,
2008-12-02, 03:32:04,VALID,1002.91,VALID,0,VALID,95.8264,VALID,0,VALID,22.9056,VALID,303,VALID,0.513672,
2008-12-02, 03:33:04,VALID,1002.91,VALID,0,VALID,95.8264,VALID,0,VALID,22.9268,VALID,310,VALID,0.651563,
2008-12-02, 03:34:04,VALID,1002.9,VALID,0,VALID,95.8264,VALID,0,VALID,22.9463,VALID,301,VALID,0.430078,
2008-12-02, 03:35:04,VALID,1002.85,VALID,0,VALID,95.834,VALID,0,VALID,22.9445,VALID,303,VALID,0.756641,
2008-12-02, 03:36:04,VALID,1002.85,VALID,0,VALID,95.8569,VALID,0,VALID,22.9445,VALID,322,VALID,0.933984,
2008-12-02, 03:37:04,VALID,1002.81,VALID,0,VALID,95.834,VALID,0,VALID,22.9852,VALID,293,VALID,0.738672,
2008-12-02, 03:38:04,VALID,1002.79,VALID,0,VALID,95.8264,VALID,0,VALID,22.964,VALID,321,VALID,1.23672,
2008-12-02, 03:39:04,VALID,1002.77,VALID,0,VALID,95.8264,VALID,0,VALID,22.9852,VALID,329,VALID,0.580859,
2008-12-02, 03:40:04,VALID,1002.74,VALID,0,VALID,95.8111,VALID,0,VALID,22.9251,VALID,1,VALID,0.349219,
2008-12-02, 03:41:04,VALID,1002.74,VALID,0,VALID,95.8111,VALID,0,VALID,22.9056,VALID,73,VALID,0.291406,
2008-12-02, 03:42:04,VALID,1002.74,VALID,0.5,VALID,95.8187,VALID,0,VALID,22.9056,VALID,67,VALID,0.553125,
2008-12-02, 03:43:04,VALID,1002.74,VALID,0,VALID,95.7959,VALID,0,VALID,22.8844,VALID,35,VALID,0.627734,